Regional Weather Roundup
Issued by NWS

Home | Current Version | Previous Version | Text Only | Print | Product List | Glossary Off
Versions: 1 2 3 4 5 6 7 8 9 10 11 12 13 14 15 16 17 18 19 20 21 22 23 24 25 26 27 28 29 30 31 32 33 34 35 36 37 38 39 40 41 42 43 44 45 46 47 48 49 50

295
ASUS43 KIND 281109
RWRIN

WEATHER ROUNDUP FOR INDIANA
NATIONAL WEATHER SERVICE INDIANAPOLIS IN
600 AM EST TUE FEB 28 2017

NOTE: "FAIR" INDICATES FEW OR NO CLOUDS BELOW 12,000 FEET WITH NO
SIGNIFICANT WEATHER AND/OR OBSTRUCTIONS TO VISIBILITY.

* - STATION DOES NOT REPORT WEATHER SUCH AS PRECIPITATION OR FOG.

+ - STATION NOT QUALITY CONTROLLED BY THE NATIONAL WEATHER SERVICE.
    USE DATA WITH CAUTION...ESPECIALLY DEWPOINT AND RELATIVE
    HUMIDITY OBSERVATIONS.

INZ001>003-010>013-019-020-281200-
NORTHWEST INDIANA

CITY           SKY/WX    TMP DP  RH WIND       PRES   REMARKS
GARY /AIRPORT/ CLOUDY    48  45  87 SE14G29   29.89F
KNOX *+        CLOUDY    45  32  61 SE14      29.93F
LA PORTE +     CLOUDY    45  44  95 S10       29.93F
MICHIGAN CITY+ CLOUDY    45  45 100 S9G18     29.91F
MONTICELLO +   DRIZZLE   45  43  93 SE3       29.95F
RENSSELAER +   CLOUDY    46  45  93 SE14      29.94S
VALPARAISO     CLOUDY    48  45  89 S10       29.93F

$$

LMZ046-743>745-281200-
SOUTHERN LAKE MICHIGAN

STATION/POSITION TIME  TEMP    WIND        PRES    WAVE
                       AIR SEA DIR/SP/G            HT
                 (UTC) (F)     (DEG/KT/KT) (MB)    (FT)
BURNS HARBOR     1040   48     170/ 14/ 20 1012.9F
MICHIGAN CITY    1040   47     140/ 16/ 20   N/A

$$

INZ004-005-014>016-021>024-281200-
NORTH CENTRAL INDIANA

CITY           SKY/WX    TMP DP  RH WIND       PRES   REMARKS
GOSHEN         RAIN      45  40  82 S16       30.00R
LOGANSPORT +   LGT RAIN  45  43  93 SE7       29.99S
PERU/GRISSOM   LGT RAIN  45  45 100 SE12      29.97F
ROCHESTER +    RAIN      46  45  93 SE8       30.00S
SOUTH BEND     LGT RAIN  44  43  96 S17       29.95F
WARSAW +       HVY RAIN  43  43 100 SE8       30.00F

$$

INZ006>009-017-018-025>027-281200-
NORTHEAST INDIANA

CITY           SKY/WX    TMP DP  RH WIND       PRES   REMARKS
ANGOLA *+      CLOUDY    41  34  75 S8        30.02S
AUBURN +       LGT RAIN  41  37  87 E8        30.03F
FORT WAYNE     CLOUDY    43  40  89 SE7       30.02F
HUNTINGTON +   LGT RAIN  43  42  95 S6        30.02S
KENDALLVILLE + RAIN      42  41  96 S10       30.02R

$$

INZ028-029-035-036-043>045-051>053-281200-
WEST CENTRAL INDIANA

CITY           SKY/WX    TMP DP  RH WIND       PRES   REMARKS
GREENCASTLE +  CLOUDY    45  45 100 SE9       29.98F
LAFAYETTE      CLOUDY    46  46 100 SE7       29.95F
TERRE HAUTE    CLOUDY    49  47  93 S9        29.98S

$$

INZ030>032-037>040-046>048-054>057-064-065-281200-
CENTRAL INDIANA

CITY           SKY/WX    TMP DP  RH WIND       PRES   REMARKS
CP ATTERBURY + RAIN      45  43  93 SE7       30.04F
FRANKFORT +    LGT RAIN  48  46  91 S14       29.98F
GREENWOOD *+   CLOUDY    46  46  99 SE9       30.03F
INDIANAPOLIS   LGT RAIN  45  44  97 SE13      30.00F FOG
-EAGLE CREEK   RAIN      46  43  89 SE8       30.00F
KOKOMO +       LGT RAIN  46  44  93 SE15      29.99F
MARION +       LGT RAIN  45  42  90 SE12      30.01F
MT COMFORT *+  CLOUDY    45  43  93 SE13      30.02F
SHELBYVILLE    RAIN      47  44  90 SE13      30.03F FOG
ZIONSVILLE +   RAIN      44  43  95 SE12      30.00F

$$

INZ033-034-041-042-049-050-058-059-281200-
EAST CENTRAL INDIANA

CITY           SKY/WX    TMP DP  RH WIND       PRES   REMARKS
MUNCIE         LGT RAIN  48  43  82 S10       30.03F

$$

INZ060-061-067>069-081>083-085>088-281200-
SOUTHWEST INDIANA

CITY           SKY/WX    TMP DP  RH WIND       PRES   REMARKS
EVANSVILLE     CLOUDY    52  49  89 S7        30.00F
HUNTINGBURG *+ CLOUDY    51  49  92 SE8       30.01F
WASHINGTON +   CLOUDY    50  48  93 SE8       30.00S

$$

INZ062-063-066-070>080-084-089>092-281200-
SOUTH CENTRAL AND SOUTHEAST INDIANA

CITY           SKY/WX    TMP DP  RH WIND       PRES   REMARKS
BEDFORD +      CLOUDY    48  46  93 SE5       30.03S
BLOOMINGTON    CLOUDY    49  46  90 S8        30.01F
MADISON *+     CLOUDY    46  43  87 E7        30.10R
NORTH VERNON + LGT RAIN N/A N/A N/A S9        30.09R
SEYMOUR +      LGT RAIN  48  46  93 SE8       30.05F

$$





USA.gov is the U.S. government's official web portal to all federal, state and local government web resources and services.